Date String (YYYY-MM-DD hh:mm:ss) UTC,Instrument flags,Ambient pressure (hPa),Sample flow (lpm),Bypass flow (lpm),Sample temperature (°C),Ambient temperature (°C),ASC tube jacket temperature (°C),LED temperature (°C),Box temperature (°C),Sample RH (%),Span deviation,Mass concentration (μg/m³),Mass concentration (μg/m³),Mass concentration (μg/m³)
DateTimeUTC,F1_M11,P_M11,Q1_M11,Q2_M11,T1_M11,T2_M11,T3_M11,T4_M11,T5_M11,U1_M11,ZSPAN_M11,X0_M11,X2_M11,X1_M11
2022-11-16 15:00:00,,0835.1,5.00,0.00,22.2,21.3,00.0,31.1,24.1,08.0,0000.0,0009.21,0002.42,0001.33
2022-11-16 15:01:00,,0835.1,5.00,0.00,22.3,22.3,00.0,31.0,24.3,07.5,0000.0,0008.97,0002.37,0001.32
2022-11-16 15:02:00,,0835.1,4.98,0.00,22.4,22.9,00.0,31.1,24.5,07.9,0000.0,0008.91,0002.30,0001.31
2022-11-16 15:03:00,,0835.1,5.00,0.00,22.5,22.6,00.0,31.2,24.5,07.7,0000.0,0009.22,0002.34,0001.31
2022-11-16 15:04:00,,0835.2,5.00,0.00,22.5,22.2,00.0,31.2,24.4,07.5,0000.0,0009.77,0002.32,0001.32
2022-11-16 15:05:00,,0835.2,5.00,0.00,22.5,22.0,00.0,31.2,24.4,07.6,0000.0,0010.16,0002.39,0001.33
2022-11-16 15:06:00,,0835.2,4.99,0.00,22.5,21.8,00.0,31.3,24.4,07.4,0000.0,0010.39,0002.44,0001.34
2022-11-16 15:07:00,,0835.2,5.00,0.00,22.5,21.7,00.0,31.3,24.4,07.2,0000.0,0010.10,0002.34,0001.33
2022-11-16 15:08:00,,0835.2,5.00,0.00,22.5,21.6,00.0,31.3,24.3,07.1,0000.0,0009.81,0002.22,0001.30
2022-11-16 15:09:00,,0835.2,5.00,0.00,22.5,21.6,00.0,31.3,24.3,07.0,0000.0,0009.62,0002.13,0001.26
2022-11-16 15:10:00,,0835.2,5.00,0.00,22.5,21.5,00.0,31.3,24.3,07.1,0000.0,0009.20,0002.04,0001.24
2022-11-16 15:11:00,,0835.2,5.00,0.00,22.5,21.5,00.0,31.3,24.3,07.3,0000.0,0007.98,0001.90,0001.21
2022-11-16 15:12:00,,0835.2,5.01,0.00,22.5,21.4,00.0,31.3,24.3,07.6,0000.0,0007.22,0001.93,0001.21
2022-11-16 15:13:00,,0835.2,5.00,0.00,22.5,21.4,00.0,31.3,24.3,07.8,0000.0,0010.35,0002.24,0001.24
2022-11-16 15:14:00,,0835.2,5.00,0.00,22.5,21.4,00.0,31.3,24.3,07.8,0000.0,0011.79,0002.40,0001.25
2022-11-16 15:15:00,,0835.2,5.00,0.00,22.5,21.3,00.0,31.3,24.3,07.9,0000.0,0011.99,0002.61,0001.25
2022-11-16 15:16:00,,0835.2,4.99,0.00,22.5,21.3,00.0,31.3,24.3,07.7,0000.0,0012.23,0002.66,0001.26
2022-11-16 15:17:00,,0835.2,4.99,0.00,22.5,21.3,00.0,31.3,24.3,07.5,0000.0,0012.38,0002.70,0001.26
2022-11-16 15:18:00,,0835.3,4.99,0.00,22.5,21.3,00.0,31.3,24.3,07.5,0000.0,0012.70,0002.74,0001.27
2022-11-16 15:19:00,,0835.2,5.00,0.00,22.5,21.2,00.0,31.3,24.3,07.4,0000.0,0013.13,0002.80,0001.27
2022-11-16 15:20:00,,0835.2,5.00,0.00,22.5,21.2,00.0,31.3,24.2,07.4,0000.0,0013.35,0002.86,0001.29
2022-11-16 15:21:00,,0835.2,5.00,0.00,22.5,21.2,00.0,31.3,24.2,07.4,0000.0,0013.50,0002.91,0001.30
2022-11-16 15:22:00,,0835.2,5.00,0.00,22.5,21.2,00.0,31.3,24.2,07.3,0000.0,0013.57,0002.93,0001.32
2022-11-16 15:23:00,,0835.3,5.01,0.00,22.5,21.2,00.0,31.3,24.2,07.2,0000.0,0013.10,0002.82,0001.31
2022-11-16 15:24:00,,0835.2,5.00,0.00,22.5,21.2,00.0,31.3,24.2,07.1,0000.0,0009.49,0002.41,0001.27
2022-11-16 15:25:00,,0835.3,5.01,0.00,22.4,21.2,00.0,31.3,24.2,07.3,0000.0,0007.96,0002.17,0001.24
2022-11-16 15:26:00,,0835.3,5.00,0.00,22.4,21.1,00.0,31.3,24.2,07.4,0000.0,0006.95,0001.91,0001.23
2022-11-16 15:27:00,,0835.2,5.00,0.00,22.4,21.1,00.0,31.3,24.2,07.5,0000.0,0005.55,0001.80,0001.21
2022-11-16 15:28:00,,0835.3,5.00,0.00,22.4,21.1,00.0,31.3,24.2,07.6,0000.0,0005.08,0001.70,0001.20
2022-11-16 15:29:00,,0835.4,4.99,0.00,22.4,21.1,00.0,31.3,24.2,07.4,0000.0,0004.59,0001.67,0001.18
2022-11-16 15:30:00,,0835.4,4.99,0.00,22.4,21.1,00.0,31.3,24.2,07.4,0000.0,0003.80,0001.64,0001.16
2022-11-16 15:31:00,,0835.4,4.99,0.00,22.4,21.1,00.0,31.3,24.2,07.3,0000.0,0003.53,0001.61,0001.15
2022-11-16 15:32:00,,0835.4,5.01,0.00,22.4,21.1,00.0,31.3,24.2,07.3,0000.0,0003.14,0001.55,0001.14
2022-11-16 15:33:00,,0835.4,5.01,0.00,22.4,21.1,00.0,31.3,24.2,07.2,0000.0,0003.17,0001.57,0001.12
2022-11-16 15:34:00,,0835.4,5.00,0.00,22.4,21.0,00.0,31.3,24.2,07.3,0000.0,0004.29,0001.86,0001.14
2022-11-16 15:35:00,,0835.4,4.99,0.00,22.4,21.0,00.0,31.3,24.2,07.2,0000.0,0005.42,0002.01,0001.15
2022-11-16 15:36:00,,0835.4,4.99,0.00,22.4,21.0,00.0,31.3,24.2,07.3,0000.0,0005.33,0002.01,0001.14
2022-11-16 15:37:00,,0835.3,5.00,0.00,22.4,21.0,00.0,31.3,24.2,07.4,0000.0,0005.40,0002.03,0001.14
2022-11-16 15:38:00,,0835.4,4.99,0.00,22.4,21.0,00.0,31.3,24.2,07.2,0000.0,0005.24,0002.00,0001.14
2022-11-16 15:39:00,,0835.4,5.00,0.00,22.4,21.0,00.0,31.3,24.2,07.4,0000.0,0005.60,0002.02,0001.13
2022-11-16 15:40:00,,0835.3,5.01,0.00,22.4,21.0,00.0,31.3,24.2,07.4,0000.0,0006.21,0002.06,0001.14
2022-11-16 15:41:00,,0835.4,5.00,0.00,22.4,21.0,00.0,31.3,24.2,07.4,0000.0,0007.00,0002.10,0001.15
2022-11-16 15:42:00,,0835.4,5.00,0.00,22.4,21.0,00.0,31.3,24.2,07.2,0000.0,0007.08,0002.11,0001.15
2022-11-16 15:43:00,,0835.4,5.00,0.00,22.4,21.0,00.0,31.3,24.2,07.2,0000.0,0007.10,0002.12,0001.16
2022-11-16 15:44:00,,0835.4,5.00,0.00,22.3,21.0,00.0,31.3,24.2,07.2,0000.0,0006.91,0002.06,0001.17
2022-11-16 15:45:00,,0835.4,5.00,0.00,22.3,21.0,00.0,31.2,24.2,07.2,0000.0,0005.71,0001.73,0001.14
2022-11-16 15:46:00,,0835.5,5.00,0.00,22.3,21.0,00.0,31.2,24.2,07.0,0000.0,0004.37,0001.54,0001.13
2022-11-16 15:47:00,,0835.5,5.00,0.00,22.3,21.0,00.0,31.2,24.2,07.2,0000.0,0004.34,0001.52,0001.12
2022-11-16 15:48:00,,0835.5,4.99,0.00,22.3,21.0,00.0,31.2,24.2,07.3,0000.0,0004.29,0001.52,0001.12
2022-11-16 15:49:00,,0835.5,5.00,0.00,22.3,20.9,00.0,31.2,24.1,07.5,0000.0,0004.34,0001.54,0001.13
2022-11-16 15:50:00,,0835.5,5.00,0.00,22.3,20.9,00.0,31.2,24.1,07.9,0000.0,0003.94,0001.55,0001.13
2022-11-16 15:51:00,,0835.5,5.00,0.00,22.3,20.9,00.0,31.2,24.1,07.8,0000.0,0003.47,0001.52,0001.13
2022-11-16 15:52:00,,0835.5,5.00,0.00,22.3,20.9,00.0,31.2,24.1,08.0,0000.0,0002.70,0001.49,0001.14
2022-11-16 15:53:00,,0835.5,5.00,0.00,22.3,20.9,00.0,31.2,24.1,07.7,0000.0,0002.75,0001.49,0001.15
2022-11-16 15:54:00,,0835.5,5.00,0.00,22.3,20.9,00.0,31.2,24.1,07.7,0000.0,0002.70,0001.48,0001.15
2022-11-16 15:55:00,,0835.5,5.00,0.00,22.3,20.9,00.0,31.2,24.1,07.3,0000.0,0002.79,0001.52,0001.15
2022-11-16 15:56:00,,0835.5,5.00,0.00,22.2,20.9,00.0,31.2,24.0,07.2,0000.0,0002.80,0001.54,0001.15
2022-11-16 15:57:00,,0835.5,5.00,0.00,22.2,20.9,00.0,31.2,24.1,07.5,0000.0,0003.15,0001.59,0001.16
2022-11-16 15:58:00,,0835.5,5.00,0.00,22.2,20.9,00.0,31.2,24.0,07.7,0000.0,0004.24,0001.62,0001.17
2022-11-16 15:59:00,,0835.5,5.00,0.00,22.2,21.0,00.0,31.2,24.0,07.9,0000.0,0005.16,0001.66,0001.18
